• In Belarus
  • List of Countries
  • For 7 days
  • Water Temperature
  • Satellite Maps
  • Weather Map
  • Weather Widgets
  • user-avatar
    Login

    Hourly Weather Poti

    Today, 20 September, Thursday

    Time Temperature Precipitation Wind Pressure Humidity
    00:00 +18°C° 0 mm 2 mps 766 mmHg 87%
    01:00 +18°C° 0 mm 2 mps 766 mmHg 85%
    02:00 +17°C° 0 mm 2 mps 766 mmHg 84%
    03:00 +17°C° 0 mm 2 mps 766 mmHg 82%
    04:00 +17°C° 0 mm 2 mps 766 mmHg 80%
    05:00 +17°C° 0 mm 2 mps 765 mmHg 77%
    06:00 +17°C° 0 mm 2 mps 765 mmHg 75%
    07:00 +20°C° 0 mm 2 mps 765 mmHg 68%
    08:00 +23°C° 0 mm 2 mps 765 mmHg 61%
    09:00 +26°C° 0 mm 2 mps 765 mmHg 53%
    10:00 +27°C° 0 mm 2 mps 764 mmHg 50%
    11:00 +28°C° 0 mm 2 mps 764 mmHg 47%
    12:00 +30°C° 0 mm 2 mps 764 mmHg 43%
    13:00 +29°C° 0 mm 3 mps 763 mmHg 46%
    14:00 +29°C° 0 mm 3 mps 763 mmHg 48%
    15:00 +29°C° 0 mm 3 mps 763 mmHg 51%
    16:00 +27°C° 0 mm 3 mps 763 mmHg 62%
    17:00 +25°C° 0 mm 3 mps 763 mmHg 72%
    18:00 +23°C° 0 mm 2 mps 763 mmHg 83%
    19:00 +21°C° 0 mm 2 mps 763 mmHg 84%
    20:00 +22°C° 0 mm 1 mps 763 mmHg 84%
    21:00 +21°C° 0 mm 1 mps 764 mmHg 85%
    22:00 +21°C° 0 mm 1 mps 764 mmHg 83%
    23:00 +21°C° 0 mm 1 mps 763 mmHg 81%

    Tomorrow, 21 September, Friday

    Time Temperature Precipitation Wind Pressure Humidity
    00:00 +21°C° 0 mm 1 mps 763 mmHg 79%
    01:00 +20°C° 0 mm 1 mps 763 mmHg 77%
    02:00 +20°C° 0 mm 1 mps 763 mmHg 75%
    03:00 +20°C° 0 mm 1 mps 763 mmHg 73%
    04:00 +20°C° 0 mm 1 mps 763 mmHg 71%
    05:00 +20°C° 0 mm 1 mps 763 mmHg 69%
    06:00 +19°C° 0 mm 2 mps 763 mmHg 68%
    07:00 +21°C° 0 mm 2 mps 763 mmHg 62%
    08:00 +25°C° 0 mm 1 mps 763 mmHg 57%
    09:00 +27°C° 0 mm 1 mps 763 mmHg 51%
    10:00 +28°C° 0 mm 1 mps 762 mmHg 48%
    11:00 +30°C° 0 mm 1 mps 762 mmHg 46%
    12:00 +31°C° 0 mm 1 mps 762 mmHg 43%
    13:00 +31°C° 0 mm 2 mps 762 mmHg 46%
    14:00 +30°C° 0 mm 2 mps 761 mmHg 49%
    15:00 +30°C° 0 mm 2 mps 761 mmHg 52%
    16:00 +28°C° 0 mm 2 mps 761 mmHg 61%
    17:00 +26°C° 0 mm 2 mps 762 mmHg 71%
    18:00 +24°C° 0 mm 2 mps 762 mmHg 80%
    19:00 +23°C° 0 mm 2 mps 762 mmHg 82%
    20:00 +22°C° 0 mm 1 mps 763 mmHg 83%
    21:00 +22°C° 0 mm 1 mps 763 mmHg 85%
    22:00 +22°C° 0 mm 1 mps 763 mmHg 84%
    23:00 +22°C° 0 mm 1 mps 763 mmHg 84%

    Day after tomorrow, 22 September, Saturday

    Time Temperature Precipitation Wind Pressure Humidity
    00:00 +21°C° 0 mm 1 mps 763 mmHg 84%
    01:00 +21°C° 0 mm 1 mps 763 mmHg 82%
    02:00 +21°C° 0 mm 1 mps 763 mmHg 81%
    03:00 +21°C° 0 mm 1 mps 763 mmHg 80%
    04:00 +21°C° 0.1 mm 1 mps 763 mmHg 77%
    05:00 +21°C° 0.1 mm 1 mps 763 mmHg 74%
    06:00 +21°C° 0.1 mm 1 mps 763 mmHg 72%
    07:00 +23°C° 0 mm 1 mps 763 mmHg 67%
    08:00 +25°C° 0 mm 1 mps 763 mmHg 62%
    09:00 +26°C° 0 mm 1 mps 763 mmHg 57%
    10:00 +28°C° 0 mm 1 mps 763 mmHg 53%
    11:00 +29°C° 0 mm 1 mps 763 mmHg 50%
    12:00 +30°C° 0 mm 1 mps 763 mmHg 47%
    13:00 +30°C° 0 mm 1 mps 762 mmHg 49%
    14:00 +29°C° 0 mm 2 mps 762 mmHg 51%
    15:00 +29°C° 0 mm 2 mps 762 mmHg 54%
    16:00 +27°C° 0 mm 2 mps 762 mmHg 63%
    17:00 +25°C° 0 mm 2 mps 762 mmHg 72%
    18:00 +23°C° 0 mm 1 mps 763 mmHg 81%
    19:00 +23°C° 0 mm 1 mps 763 mmHg 81%
    20:00 +22°C° 0 mm 1 mps 763 mmHg 82%
    21:00 +22°C° 0 mm 1 mps 764 mmHg 83%
    22:00 +22°C° 0 mm 1 mps 764 mmHg 82%
    23:00 +21°C° 0 mm 1 mps 764 mmHg 81%

    23 September, Sunday

    Time Temperature Precipitation Wind Pressure Humidity
    00:00 +21°C° 0 mm 1 mps 763 mmHg 80%
    01:00 +21°C° 0 mm 1 mps 763 mmHg 79%
    02:00 +21°C° 0 mm 1 mps 763 mmHg 78%
    03:00 +20°C° 0 mm 1 mps 763 mmHg 77%
    04:00 +20°C° 0 mm 1 mps 763 mmHg 75%
    05:00 +20°C° 0 mm 1 mps 763 mmHg 74%
    06:00 +20°C° 0 mm 1 mps 763 mmHg 72%
    07:00 +22°C° 0 mm 1 mps 763 mmHg 66%
    08:00 +24°C° 0 mm 1 mps 763 mmHg 60%
    09:00 +27°C° 0 mm 1 mps 763 mmHg 55%
    10:00 +28°C° 0 mm 1 mps 763 mmHg 53%
    11:00 +28°C° 0 mm 1 mps 763 mmHg 50%
    12:00 +29°C° 0 mm 2 mps 763 mmHg 48%
    13:00 +29°C° 0 mm 2 mps 763 mmHg 52%
    14:00 +28°C° 0 mm 3 mps 763 mmHg 56%
    15:00 +28°C° 0 mm 3 mps 762 mmHg 60%
    16:00 +26°C° 0.2 mm 3 mps 763 mmHg 69%
    17:00 +25°C° 0.2 mm 3 mps 763 mmHg 78%
    18:00 +22°C° 0.2 mm 3 mps 763 mmHg 87%
    19:00 +21°C° 1.2 mm 3 mps 764 mmHg 88%
    20:00 +21°C° 1.2 mm 3 mps 764 mmHg 89%
    21:00 +20°C° 1.2 mm 3 mps 765 mmHg 91%
    22:00 +20°C° 1 mm 3 mps 765 mmHg 90%
    23:00 +20°C° 1 mm 3 mps 765 mmHg 90%

    24 September, Monday

    Time Temperature Precipitation Wind Pressure Humidity
    00:00 +20°C° 1 mm 3 mps 765 mmHg 90%
    01:00 +20°C° 1 mm 3 mps 765 mmHg 90%
    02:00 +19°C° 1 mm 3 mps 765 mmHg 90%
    03:00 +19°C° 1 mm 3 mps 765 mmHg 90%
    04:00 +19°C° 0.6 mm 3 mps 765 mmHg 89%
    05:00 +19°C° 0.6 mm 3 mps 765 mmHg 88%
    06:00 +19°C° 0.6 mm 4 mps 765 mmHg 87%
    07:00 +21°C° 0.4 mm 3 mps 765 mmHg 80%
    08:00 +22°C° 0.4 mm 3 mps 764 mmHg 74%
    09:00 +25°C° 0.4 mm 3 mps 764 mmHg 67%
    10:00 +26°C° 0.1 mm 3 mps 764 mmHg 61%
    11:00 +27°C° 0.1 mm 3 mps 764 mmHg 55%
    12:00 +28°C° 0.1 mm 3 mps 763 mmHg 50%
    13:00 +28°C° 0 mm 2 mps 763 mmHg 50%
    14:00 +28°C° 0 mm 2 mps 763 mmHg 51%
    15:00 +28°C° 0 mm 2 mps 762 mmHg 52%
    16:00 +27°C° 0 mm 1 mps 762 mmHg 60%
    17:00 +25°C° 0 mm 1 mps 762 mmHg 69%
    18:00 +23°C° 0 mm 1 mps 762 mmHg 78%
    19:00 +21°C° 0 mm 2 mps 762 mmHg 77%
    20:00 +21°C° 0 mm 2 mps 762 mmHg 76%
    21:00 +21°C° 0 mm 3 mps 762 mmHg 75%
    22:00 +21°C° 0 mm 3 mps 762 mmHg 72%
    23:00 +21°C° 0 mm 4 mps 761 mmHg 69%

    25 September, Tuesday

    Time Temperature Precipitation Wind Pressure Humidity
    00:00 +21°C° 0 mm 4 mps 761 mmHg 66%
    01:00 +21°C° 0 mm 5 mps 761 mmHg 63%
    02:00 +21°C° 0 mm 5 mps 760 mmHg 60%
    03:00 +21°C° 0 mm 5 mps 760 mmHg 57%
    04:00 +21°C° 0 mm 5 mps 760 mmHg 55%
    05:00 +21°C° 0 mm 5 mps 760 mmHg 53%
    06:00 +21°C° 0 mm 5 mps 760 mmHg 51%
    07:00 +23°C° 0 mm 4 mps 759 mmHg 48%
    08:00 +27°C° 0 mm 4 mps 759 mmHg 44%
    09:00 +29°C° 0 mm 4 mps 759 mmHg 41%
    10:00 +32°C° 0 mm 4 mps 758 mmHg 37%
    11:00 +34°C° 0 mm 3 mps 758 mmHg 33%
    12:00 +35°C° 0 mm 2 mps 758 mmHg 29%
    13:00 +35°C° 0 mm 2 mps 758 mmHg 28%
    14:00 +35°C° 0 mm 2 mps 758 mmHg 28%
    15:00 +35°C° 0 mm 2 mps 758 mmHg 27%
    16:00 +31°C° 0 mm 2 mps 758 mmHg 37%
    17:00 +28°C° 0 mm 3 mps 758 mmHg 47%
    18:00 +25°C° 0 mm 4 mps 758 mmHg 57%
    19:00 +23°C° 0 mm 4 mps 759 mmHg 60%
    20:00 +23°C° 0 mm 4 mps 759 mmHg 64%
    21:00 +22°C° 0 mm 4 mps 760 mmHg 67%
    22:00 +21°C° 0 mm 4 mps 760 mmHg 69%
    23:00 +21°C° 0 mm 4 mps 760 mmHg 71%
    Show more